CAPE
34 40 9 27 9 39 36 31 29 25 1 0 0 0 0 0 0 0 0 0 0 0 0 0 0 0 0 0 0 0 0 0 0 0 0 0 0 0 0 0 0 0 0 0 0
3 2 36 30 6 5 12 3 0 7 0 0 0 0 0 0 0 0 0 0 0 0 0 0 0 0 0 0 0 0 0 0 0 0 0 0 0 0 0 0 0 0 0 0 0
0 0 0 0 0 0 0 0 0 0 0 0 0 0 0 0 0 0 0 0 0 0 0 0 0 0 0 0 0 0 0 0 0 0 0 0 0 0 0 0 0 0 0 0 0
0 0 0 0 0 0 0 0 0 0 0 0 0 0 0 0 0 0 0 0 0 0 0 0 0 0 0 0 0 0 0 0 0 0 0 0 0 0 0 0 0 0 0 0 0
0 0 0 0 0 0 0 0 0 0 0 0 0 0 0 0 0 0 0 0 0 0 0 0 0 0 0 0 0 0 0 0 0 0 0 0 0 0 0 0 0 0 0 0 0
0 0 0 0 0 0 0 0 0 0 0 0 0 0 0 0 0 0 0 0 0 0 0 0 0 0 0 0 0 0 0 0 0 0 0 0 0 0 0 0 0 0 0 0 0
0 0 0 0 0 0 0 0 0 0 0 0 0 0 0 0 0 0 0 0 0 0 0 0 0 0 0 0 0 0 0 0 0 0 0 0 0 0 0 0 0 0 0 0 0
0 0 0 0 0 0 0 0 0 0 0 0 0 0 0 0 0 0 0 0 0 0 0 0 0 0 0 0 0 0 0 0 0 0 0 0 0 0 0 0 0 0 0 0 0
0 0 0 0 0 0 0 0 0 0 0 0 0 0 0 0 0 0 0 0 0 0 0 0 0 0 0 0 0 0 0 0 0 0 0 0 0 0 0 0 0 0 0 0 0
0 0 0 0 0 0 0 0 0 0 0 0 0 0 0 0 0 0 0 0 0 0 0 0 0 0 0 0 0 0 0 0 0 0 0 0 0 0 0 0 0 0 0 0 0
0 0 0 0 0 0 0 0 0 0 0 0 0 0 0 0 0 0 0 0 0 0 0 0 0 0 0 0 0 0 0 0 0 0 0 0 0 0 0 0 0 0 0 0 0
0 0 0 0 0 0 0 0 0 0 0 0 0 0 0 0 0 0 0 0 0 0 0 0 0 0 0 0 0 0 0 0 0 0 0 0 0 0 0 0 0 0 0 0 0
0 0 0 0 0 0 0 0 0 0 0 0 0 0 0 0 0 0 0 0 0 0 0 0 0 0 0 0 0 0 0 0 0 0 0 0 0 0 0 0 0 0 0 0 0
0 0 0 0 0 0 0 0 0 0 0 0 0 0 0 0 0 0 0 0 0 0 0 0 0 0 0 0 0 0 0 0 0 0 0 0 0 0 0 0 0 0 0 0 0
0 0 0 0 0 0 0 0 0 0 0 0 0 0 0 0 0 0 0 0 0 0 0 0 0 0 0 0 0 0 0 0 0 0 0 0 0 0 0 0 0 0 0 0 0
0 0 0 0 0 0 0 0 0 0 0 0 0 0 0 0 0 0 0 0 0 0 0 0 0 0 0 0 0 0 0 0 0 0 0 0 0 0 0 0 0 0 0 0 0
0 0 0 0 0 0 0 0 0 0 0 0 0 0 0 0 0 0 0 0 0 0 0 0 0 0 0 0 0 0 0 0 0 0 0 0 0 0 0 0 0 0 0 0 0
0 0 0 0 0 0 0 0 0 0 0 0 0 0 0 0 0 0 0 0 0 0 0 0 0 0 0 0 0 0 0 0 0 0 0 0 0 0 0 0 0 0 0 0 0
0 0 0 0 0 0 0 0 0 0 0 0 0 0 0 0 0 0 0 0 0 0 0 0 0 0 0 0 0 0 0 0 0 0 0 0 0 0 0 0 0 0 0 0 0
0 0 0 0 0 0 0 0 0 0 0 0 0 0 0 0 0 0 0 0 0 0 0 0 0 0 0 0 0 0 0 0 0 0 0 0 0 0 0 0 0 0 0 0 0
0 0 0 0 0 0 0 0 0 0 0 0 0 0 0 0 0 0 0 0 0 0 0 0 0 0 0 0 0 0 0 0 0 0 0 0 0 0 0 0 0 0 0 0 0
0 0 0 0 0 0 0 0 0 0 0 0 0 0 0 0 0 0 0 0 0 0 0 0 0 0 0 0 0 0 0 0 0 0 0 0 0 0 0 0 0 0 0 0 0
0 0 0 0 0 0 0 0 0 0 0 0 0 0 0 0 0 0 0 0 0 0 0 0 0 0 0 0 0 0 0 0 0 0 0 0 0 0 0 0 0 0 0 0 0
0 0 0 0 0 0 0 0 0 0 0 0 0 0 0 0 0 0 0 0 0 0 0 0 0 0 0 0 0 0 0 0 0 0 0 0 0 0 0 0 0 0 0 0 0
0 0 0 0 0 0 0 0 0 0 0 0 0 0 0 0 0 0 0 0 0 0 0 0 0 0 0 0 0 0 0 0 0 0 0 0 0 0 0 0 0 0 0 0 0
0 0 0 0 0 0 0 0 0 0 0 0 0 0 0 0 0 0 0 0 0 0 0 0 0 0 0 0 0 0 0 0 0 0 0 0 0 0 0 0 0 0 0 0 0
0 0 0 0 0 0 0 0 0 0 0 0 0 0 0 0 0 0 0 0 0 0 0 0 0 0 0 0 0 0 0 0 0 0 0 0 0 0 0 0 0 0 0 0 0
CIN
0 -1 -22 -9 -14 -3 -4 -7 -6 -11 -12 0 0 0 0 0 0 0 0 0 0 0 0 0 0 0 0 0 0 0 0 0 0 0 0 0 0 0 0 0 0 0 0 0 0
0 0 0 -6 -6 -13 -22 -12 0 -59 -7 0 0 0 0 0 0 0 0 0 0 0 0 0 0 0 0 0 0 0 0 0 0 0 0 0 0 0 0 0 0 0 0 0 0
0 0 0 0 0 0 -5 0 0 0 0 0 0 0 0 0 0 0 0 0 0 0 0 0 0 0 0 0 0 0 0 0 0 0 0 0 0 0 0 0 0 0 0 0 0
0 0 0 0 0 0 0 0 0 0 0 0 0 0 0 0 0 0 0 0 0 0 0 0 0 0 0 0 0 0 0 0 0 0 0 0 0 0 0 0 0 0 0 0 0
0 0 0 0 0 0 0 0 0 0 0 0 0 0 0 0 0 0 0 0 0 0 0 0 0 0 0 0 0 0 0 0 0 0 0 0 0 0 0 0 0 0 0 0 0
0 0 0 0 0 0 0 0 0 0 0 0 0 0 0 0 0 0 0 0 0 0 0 0 0 0 0 0 0 0 0 0 0 0 0 0 0 0 0 0 0 0 0 0 0
0 0 0 0 0 0 0 0 0 0 0 0 0 0 0 0 0 0 0 0 0 0 0 0 0 0 0 0 0 0 0 0 0 0 0 0 0 0 0 0 0 0 0 0 0
0 0 0 0 0 0 0 0 0 0 0 0 0 0 0 0 0 0 0 0 0 0 0 0 0 0 0 0 0 0 0 0 0 0 0 0 0 0 0 0 0 0 0 0 0
0 0 0 0 0 0 0 0 0 0 0 0 0 0 0 0 0 0 0 0 0 0 0 0 0 0 0 0 0 0 0 0 0 0 0 0 0 0 0 0 0 0 0 0 0
0 0 0 0 0 0 0 0 0 0 0 0 0 0 0 0 0 0 0 0 0 0 0 0 0 0 0 0 0 0 0 0 0 0 0 0 0 0 0 0 0 0 0 0 0
0 0 0 0 0 0 0 0 0 0 0 0 0 0 0 0 0 0 0 0 0 0 0 0 0 0 0 0 0 0 0 0 0 0 0 0 0 0 0 0 0 0 0 0 0
0 0 0 0 0 0 0 0 0 0 0 0 0 0 0 0 0 0 0 0 0 0 0 0 0 0 0 0 0 0 0 0 0 0 0 0 0 0 0 0 0 0 0 0 0
0 0 0 0 0 0 0 0 0 0 0 0 0 0 0 0 0 0 0 0 0 0 0 0 0 0 0 0 0 0 0 0 0 0 0 0 0 0 0 0 0 0 0 0 0
0 0 0 0 0 0 0 0 0 0 0 0 0 0 0 0 0 0 0 0 0 0 0 0 0 0 0 0 0 0 0 0 0 0 0 0 0 0 0 0 0 0 0 0 0
0 0 0 0 0 0 0 0 0 0 0 0 0 0 0 0 0 0 0 0 0 0 0 0 0 0 0 0 0 0 0 0 0 0 0 0 0 0 0 0 0 0 0 0 0
0 0 0 0 0 0 0 0 0 0 0 0 0 0 0 0 0 0 0 0 0 0 0 0 0 0 0 0 0 0 0 0 0 0 0 0 0 0 0 0 0 0 0 0 0
0 0 0 0 0 0 0 0 0 0 0 0 0 0 0 0 0 0 0 0 0 0 0 0 0 0 0 0 0 0 0 0 0 0 0 0 0 0 0 0 0 0 0 0 0
0 0 0 0 0 0 0 0 0 0 0 0 0 0 0 0 0 0 0 0 0 0 0 0 0 0 0 0 0 0 0 0 0 0 0 0 0 0 0 0 0 0 0 0 0
0 0 0 0 0 0 0 0 0 0 0 0 0 0 0 0 0 0 0 0 0 0 0 0 0 0 0 0 0 0 0 0 0 0 0 0 0 0 0 0 0 0 0 0 0
0 0 0 0 0 0 0 0 0 0 0 0 0 0 0 0 0 0 0 0 0 0 0 0 0 0 0 0 0 0 0 0 0 0 0 0 0 0 0 0 0 0 0 0 0
0 0 0 0 0 0 0 0 0 0 0 0 0 0 0 0 0 0 0 0 0 0 0 0 0 0 0 0 0 0 0 0 0 0 0 0 0 0 0 0 0 0 0 0 0
0 0 0 0 0 0 0 0 0 0 0 0 0 0 0 0 0 0 0 0 0 0 0 0 0 0 0 0 0 0 0 0 0 0 0 0 0 0 0 0 0 0 0 0 0
0 0 0 0 0 0 0 0 0 0 0 0 0 0 0 0 0 0 0 0 0 0 0 0 0 0 0 0 0 0 0 0 0 0 0 0 0 0 0 0 0 0 0 0 0
0 0 0 0 0 0 0 0 0 0 0 0 0 0 0 0 0 0 0 0 0 0 0 0 0 0 0 0 0 0 0 0 0 0 0 0 0 0 0 0 0 0 0 0 0
0 0 0 0 0 0 0 0 0 0 0 0 0 0 0 0 0 0 0 0 0 0 0 0 0 0 0 0 0 0 0 0 0 0 0 0 0 0 0 0 0 0 0 0 0
0 0 0 0 0 0 0 0 0 0 0 0 0 0 0 0 0 0 0 0 0 0 0 0 0 0 0 0 0 0 0 0 0 0 0 0 0 0 0 0 0 0 0 0 0
0 0 0 0 0 0 0 0 0 0 0 0 0 0 0 0 0 0 0 0 0 0 0 0 0 0 0 0 0 0 0 0 0 0 0 0 0 0 0 0 0 0 0 0 0
Wind_Speed
23 19 22 24 23 23 20 17 16 9 14 17 19 21 21 19 18 22 29 24 24 24 20 20 19 19 17 18 18 16 15 15 16 14 15 15 16 17 14 12 14 15 15 12 13
16 23 24 24 24 24 10 7 8 10 12 14 16 17 18 16 20 24 21 21 22 22 20 21 20 16 17 18 17 16 15 16 18 17 14 14 15 13 14 12 12 15 13 12 14
13 14 17 16 17 16 16 12 10 12 13 13 15 16 17 15 20 22 19 21 21 19 19 18 19 16 19 17 16 16 16 15 17 15 14 14 14 14 14 14 18 9 11 13 14
16 15 14 13 14 13 15 12 11 12 13 15 17 16 16 16 27 20 18 20 20 19 18 17 15 17 18 17 16 15 16 17 17 17 16 14 15 15 12 15 13 12 11 13 13
15 14 14 13 14 13 13 13 14 15 16 18 21 22 17 18 20 17 17 19 19 17 16 16 17 18 19 16 15 17 16 16 15 15 15 16 15 14 13 11 11 12 13 12 13
11 11 13 13 13 13 13 14 14 15 16 18 21 21 18 20 20 17 16 16 16 17 16 15 15 16 15 15 16 16 16 15 16 16 16 16 17 14 16 8 10 11 11 12 14
10 10 11 12 12 12 13 14 15 16 17 19 21 21 17 19 19 17 16 15 16 16 15 16 15 14 14 15 15 13 16 17 16 16 17 16 17 12 14 10 8 9 9 11 15
9 10 11 11 12 13 14 15 16 16 18 20 20 19 17 20 17 15 16 14 13 13 12 15 15 13 15 12 15 16 17 19 16 14 16 17 21 15 9 10 7 8 10 12 16
8 9 11 11 12 13 14 15 16 17 20 19 18 18 19 19 18 16 15 16 13 12 13 14 13 14 14 14 17 18 19 19 18 15 16 16 21 12 9 9 8 9 9 11 14
10 10 11 12 13 13 14 16 17 16 19 18 18 18 20 20 19 18 17 17 14 12 12 13 14 15 16 17 21 20 21 20 19 17 16 18 19 13 10 10 10 13 10 11 13
7 10 11 13 13 13 14 17 19 19 15 19 19 18 20 18 17 17 18 17 15 12 15 14 16 18 16 17 18 20 21 21 19 16 21 20 20 19 8 13 13 15 10 11 13
7 9 11 13 14 14 15 17 18 19 19 17 17 17 18 19 19 17 17 15 13 13 12 14 18 15 15 17 19 20 22 23 19 18 21 21 23 20 13 15 15 10 9 11 11
8 10 12 13 14 14 14 16 16 16 18 18 17 18 19 18 18 18 18 15 12 13 13 15 14 14 16 17 18 19 20 21 23 24 21 23 25 18 15 16 13 9 9 10 8
11 11 14 14 13 14 14 12 14 15 19 20 20 18 18 18 16 17 17 16 12 10 10 13 14 14 14 16 17 20 18 19 22 24 26 20 29 20 14 14 13 10 10 10 10
17 15 14 15 16 14 14 15 15 15 16 20 19 16 17 17 15 16 16 15 10 11 11 14 12 13 15 16 16 18 16 19 21 24 25 23 25 24 13 15 11 9 10 9 9
21 19 18 16 14 15 15 16 15 18 21 18 17 17 15 16 14 13 14 14 13 12 13 13 15 15 14 14 15 14 17 20 22 23 28 24 22 24 16 16 12 9 8 8 9
24 22 19 17 16 15 15 15 20 21 18 18 18 16 14 11 12 13 10 10 11 14 15 14 15 15 14 15 17 17 20 28 29 27 29 21 25 25 17 21 11 6 5 8 10
26 23 19 15 14 14 13 16 22 19 19 16 15 14 15 13 15 13 13 15 15 14 15 18 22 15 15 17 18 17 19 25 33 32 30 23 27 23 18 19 12 4 6 10 11
27 20 18 15 13 14 13 20 21 20 17 12 14 17 18 18 17 16 17 19 15 14 18 18 21 17 17 17 17 20 22 20 25 27 31 26 24 20 15 16 12 9 10 12 13
23 21 19 14 13 13 16 22 20 17 15 15 18 16 18 18 17 17 17 18 17 16 16 19 23 19 18 18 19 19 17 23 23 30 31 25 23 21 15 13 12 12 13 13 14
21 22 17 13 13 17 23 22 21 18 16 16 20 20 21 19 18 20 21 19 16 15 16 18 21 22 19 19 18 19 21 20 20 20 25 28 24 21 17 14 13 13 12 13 15
23 26 15 12 21 20 24 22 21 19 18 20 20 20 20 18 21 23 22 21 14 13 17 18 21 24 24 21 20 20 20 17 21 23 22 25 28 20 20 19 18 15 14 17 20
25 26 19 17 28 28 24 23 22 22 22 20 22 21 20 20 24 21 20 17 14 16 17 16 23 26 28 26 23 23 22 21 22 25 26 29 28 18 17 18 19 17 19 22 25
26 30 24 25 27 28 27 28 27 20 22 21 22 20 22 23 21 21 19 18 15 15 15 16 24 27 30 28 23 24 22 20 22 28 30 26 29 22 22 22 22 21 23 26 28
27 31 26 30 31 30 27 27 26 27 23 19 25 25 23 26 24 24 20 18 19 17 18 20 30 29 29 29 29 30 28 24 24 26 32 33 30 27 23 23 24 24 29 31 32
32 31 29 34 29 27 27 30 28 26 23 28 28 25 24 28 24 26 22 22 23 19 20 22 30 29 34 32 33 36 32 32 32 32 35 36 37 26 22 22 25 27 29 32 33
27 27 29 34 33 32 33 31 30 26 26 24 25 25 24 24 19 18 20 20 20 21 21 23 26 30 38 31 35 43 35 31 32 31 32 37 32 22 25 27 28 30 30 31 33
Wind_Direction
61 83 76 54 66 83 130 162 163 253 232 227 229 225 224 227 226 222 221 231 241 244 249 255 261 259 272 267 266 274 277 276 276 279 288 296 310 318 343 355 357 343 345 6 358
93 72 58 69 75 82 178 221 212 208 219 218 219 217 214 220 223 217 233 239 242 238 239 239 243 254 261 261 262 267 272 271 269 275 301 311 320 334 340 355 358 340 3 8 348
109 116 112 132 128 138 148 179 197 199 206 213 210 211 212 222 214 217 238 236 234 237 240 247 247 256 254 258 262 266 268 272 277 286 304 316 320 338 343 349 325 360 6 2 350
99 111 128 143 147 159 153 175 196 198 197 200 202 206 208 218 204 224 235 230 229 232 239 243 248 249 252 255 262 269 272 275 281 287 302 317 325 337 355 342 355 7 12 357 348
106 120 129 146 149 163 169 173 179 181 185 186 186 189 209 210 214 227 229 225 224 231 238 242 243 250 250 259 267 269 273 283 292 299 306 316 328 339 344 340 350 355 355 349 341
124 136 141 150 160 171 178 178 183 186 187 187 187 190 205 204 209 221 223 224 228 232 240 247 253 256 259 265 266 275 278 289 295 299 313 320 329 345 337 352 350 359 2 352 334
139 156 157 162 173 179 180 182 187 189 188 189 186 186 195 199 203 213 219 224 229 235 240 249 258 262 269 267 271 280 282 288 297 308 316 330 326 343 340 353 359 5 5 350 332
147 166 177 177 183 183 183 186 189 189 188 186 188 190 195 196 209 216 219 221 233 244 252 252 259 267 270 272 275 276 283 285 300 318 324 329 317 341 353 353 353 352 351 345 336
147 177 188 190 188 188 189 190 190 189 185 187 188 191 189 202 204 215 221 221 232 242 247 251 266 267 267 271 273 276 281 288 300 318 324 325 322 344 353 355 346 343 345 343 340
135 173 205 205 204 201 204 194 191 195 189 195 193 191 193 197 205 210 216 222 238 248 258 265 271 265 267 269 269 278 281 292 301 315 323 320 319 335 333 334 336 335 337 340 339
187 158 186 209 214 216 208 189 180 178 192 183 188 187 190 199 213 213 217 223 238 261 257 265 263 261 270 276 281 286 288 294 311 325 320 320 320 324 329 322 325 327 333 337 341
220 209 189 185 204 221 213 191 187 189 176 192 195 196 202 207 209 221 226 246 257 260 274 270 265 280 287 287 289 292 291 296 313 324 322 321 318 324 329 324 326 335 342 344 347
265 238 224 181 207 219 225 208 217 220 191 194 205 200 203 213 219 225 229 244 271 272 273 273 285 294 291 293 294 300 298 302 306 315 323 322 318 330 332 336 342 348 351 351 350
274 261 255 247 254 250 237 263 251 246 195 195 204 217 220 221 233 233 240 251 280 289 296 296 299 301 301 300 303 297 314 315 315 314 309 329 310 323 329 330 339 342 344 346 351
284 270 258 287 252 273 267 273 275 259 247 219 225 245 239 238 249 257 259 266 298 301 305 300 310 305 302 306 313 308 323 320 320 314 315 318 314 322 330 324 321 328 332 335 341
288 285 284 315 316 285 283 287 292 247 237 246 250 254 260 259 276 283 281 284 292 308 310 312 307 312 314 318 320 326 321 320 320 317 308 316 315 319 324 323 321 324 333 342 343
298 294 301 305 311 305 300 298 256 254 257 262 258 266 279 293 289 287 305 308 306 295 297 312 311 312 315 314 317 318 315 306 305 308 308 320 314 315 320 326 323 325 337 342 341
303 300 319 325 320 310 313 286 264 272 268 278 278 274 279 284 286 290 295 291 294 302 301 296 296 308 313 310 312 312 312 306 301 303 308 317 312 321 329 332 341 357 355 348 342
303 317 316 320 321 312 309 280 281 281 287 290 284 277 274 278 284 285 285 289 295 293 295 298 300 312 316 318 318 313 307 318 310 311 307 310 316 323 334 340 354 350 343 338 338
315 310 308 317 318 308 294 282 290 297 299 287 278 282 280 280 281 283 284 295 295 297 303 301 299 306 311 314 314 312 321 311 312 305 305 313 312 315 323 326 332 331 330 334 337
311 304 309 314 306 293 280 284 290 295 294 287 281 280 284 285 284 283 289 298 299 300 306 306 301 305 311 305 305 309 306 311 315 313 311 312 316 322 321 319 319 321 326 332 334
299 290 307 306 284 288 280 284 288 290 287 286 290 288 283 288 284 282 285 296 306 305 298 302 303 298 300 310 311 308 306 303 304 308 308 311 310 322 327 328 330 322 330 333 332
288 287 296 291 278 275 282 284 285 283 283 285 283 285 289 287 285 286 292 301 303 299 300 299 297 297 300 302 303 301 300 302 303 305 302 305 311 329 331 332 339 337 332 330 330
286 279 283 279 280 279 276 277 278 285 283 282 284 286 286 285 287 287 290 298 301 302 308 307 294 292 294 301 305 301 302 301 299 299 302 297 306 310 316 317 322 326 327 326 327
278 276 280 278 275 272 275 278 275 277 280 280 281 279 281 279 279 281 288 294 299 300 300 299 290 293 296 299 300 299 299 298 292 294 296 306 303 307 309 313 317 322 322 321 321
274 274 279 275 279 273 273 272 272 276 277 277 276 280 276 277 278 280 282 285 289 294 294 297 293 299 296 298 298 296 296 295 294 295 295 298 300 307 311 316 316 319 321 321 322
279 280 277 273 274 270 271 272 275 273 278 282 277 278 272 276 289 295 293 292 289 290 290 293 295 297 294 302 302 295 297 294 299 301 300 298 306 309 312 313 316 318 322 323 323